Regional Weather Roundup
Issued by NWS Charleston, WV

Home | Current Version | Previous Version | Graphics & Text | Print | Product List | Glossary On
Versions: 1 2 3 4 5 6 7 8 9 10 11 12 13 14 15 16 17 18 19 20 21 22 23 24 25 26 27 28 29 30 31 32 33 34 35 36 37 38 39 40 41 42 43 44 45 46 47 48 49 50
000
ASUS41 KRLX 200010
RWRRLX
West Virginia Regional Weather Roundup
National Weather Service Charleston WV
800 PM EDT SUN OCT 19 2014

Note: "fair" indicates few or no clouds below 12,000 feet with no
significant weather and/or obstructions to visibility.

WVZ003-200100-
Northern Panhandle of West Virginia

CITY           SKY/WX    TMP DP  RH WIND       PRES   REMARKS
WHEELING       MOCLDY    48  32  53 SW5       30.09F
$$

WVZ009-200100-
Northwest West Virginia

CITY           SKY/WX    TMP DP  RH WIND       PRES   REMARKS
PARKERSBURG    MOCLDY    48  36  63 CALM      30.14S
$$

WVZ006-200100-
Western West Virginia

CITY           SKY/WX    TMP DP  RH WIND       PRES   REMARKS
HUNTINGTON     PTCLDY    50  38  63 E3        30.12S
$$

WVZ015-200100-
West Central West Virginia

CITY           SKY/WX    TMP DP  RH WIND       PRES   REMARKS
CHARLESTON     MOCLDY    47  40  76 CALM      30.13S
$$

WVZ022-031-200100-
North Central West Virginia

CITY           SKY/WX    TMP DP  RH WIND       PRES   REMARKS
CLARKSBURG     PTCLDY    46  35  65 CALM      30.11S
MORGANTOWN     PTCLDY    48  34  58 CALM      30.12R
$$

WVZ025-035-042-045-200100-
Southern West Virginia

CITY           SKY/WX    TMP DP  RH WIND       PRES   REMARKS
BECKLEY        PTCLDY    44  36  73 CALM      30.14R
LOGAN            N/A     48  37  66 CALM      30.14S
BLUEFIELD      CLEAR     46  35  65 CALM      30.15R
LEWISBURG      PTCLDY    46  34  63 CALM      30.14R
$$

WVZ047-200100-
Northern Mountains of West Virginia

CITY           SKY/WX    TMP DP  RH WIND       PRES   REMARKS
ELKINS         MOCLDY    40  36  86 CALM      30.13S
$$

WVZ052-200100-
Eastern Panhandle of West Virginia

CITY           SKY/WX    TMP DP  RH WIND       PRES   REMARKS
MARTINSBURG    CLEAR     45  32  60 CALM      30.09R
PETERSBURG     MOCLDY   N/A N/A N/A CALM      30.11S
$$



USA.gov is the U.S. government's official web portal to all federal, state and local government web resources and services.